Time,TemperatureF,DewpointF,PressureIn,WindDirection,WindDirectionDegrees,WindSpeedMPH,WindSpeedGustMPH,Humidity,HourlyPrecipIn,Conditions,Clouds,dailyrainin,SoftwareType,DateUTC
2013-03-26 00:00:00,35.2,34.5,29.63,NW,308,14.0,21.0,97,0.00,OVC,,0.72,WeatherDisplay:10.37,2013-03-26 04:00:00,
2013-03-26 00:15:00,35.4,34.7,29.66,WNW,295,12.0,21.0,97,0.00,OVC,,0.72,WeatherDisplay:10.37,2013-03-26 04:15:00,
2013-03-26 00:30:00,35.6,34.6,29.66,WNW,303,12.0,14.0,96,0.00,OVC,,0.72,WeatherDisplay:10.37,2013-03-26 04:30:00,
2013-03-26 00:45:00,35.4,34.7,29.66,NW,308,12.0,14.0,97,0.00,OVC,,0.72,WeatherDisplay:10.37,2013-03-26 04:45:00,
2013-03-26 01:00:00,35.6,34.6,29.66,NW,305,14.0,15.0,96,0.00,OVC,,0.72,WeatherDisplay:10.37,2013-03-26 05:00:00,
2013-03-26 01:15:00,35.8,34.8,29.66,NW,307,12.0,15.0,96,0.00,OVC,,0.72,WeatherDisplay:10.37,2013-03-26 05:15:00,
2013-03-26 01:30:00,35.8,34.8,29.66,NW,313,9.0,12.0,96,0.00,OVC,,0.72,WeatherDisplay:10.37,2013-03-26 05:30:00,
2013-03-26 01:45:00,35.8,34.5,29.66,NW,310,9.0,13.0,95,0.00,OVC,,0.72,WeatherDisplay:10.37,2013-03-26 05:45:00,
2013-03-26 02:00:00,36.0,34.4,29.69,NW,314,12.0,13.0,94,0.00,OVC,,0.72,WeatherDisplay:10.37,2013-03-26 06:00:00,
2013-03-26 02:15:00,36.1,34.3,29.69,NW,318,10.0,12.0,93,0.00,OVC,,0.72,WeatherDisplay:10.37,2013-03-26 06:15:00,
2013-03-26 02:30:00,36.1,34.0,29.69,NW,318,8.0,9.0,92,0.00,OVC,,0.72,WeatherDisplay:10.37,2013-03-26 06:30:00,
2013-03-26 02:45:00,36.1,34.0,29.69,NW,322,7.0,8.0,92,0.00,OVC,,0.72,WeatherDisplay:10.37,2013-03-26 06:45:00,
2013-03-26 03:00:00,36.1,33.8,29.69,NW,319,8.0,10.0,91,0.00,OVC,,0.72,WeatherDisplay:10.37,2013-03-26 07:00:00,
2013-03-26 03:15:00,36.0,32.8,29.69,NW,318,9.0,10.0,88,0.00,OVC,,0.72,WeatherDisplay:10.37,2013-03-26 07:15:00,
2013-03-26 03:30:00,35.8,32.3,29.69,NW,326,7.0,8.0,87,0.00,OVC,,0.72,WeatherDisplay:10.37,2013-03-26 07:30:00,
2013-03-26 03:45:00,36.0,32.8,29.69,NW,305,7.0,8.0,88,0.00,OVC,,0.72,WeatherDisplay:10.37,2013-03-26 07:45:00,
2013-03-26 04:00:00,36.0,32.8,29.69,WNW,290,8.0,12.0,88,0.00,OVC,,0.72,WeatherDisplay:10.37,2013-03-26 08:00:00,
2013-03-26 04:15:00,36.0,33.0,29.69,WNW,303,7.0,10.0,89,0.00,OVC,,0.72,WeatherDisplay:10.37,2013-03-26 08:15:00,
2013-03-26 04:30:00,36.0,33.0,29.69,WNW,292,6.0,10.0,89,0.00,OVC,,0.72,WeatherDisplay:10.37,2013-03-26 08:30:00,
2013-03-26 04:45:00,36.0,33.0,29.72,NW,305,7.0,10.0,89,0.00,OVC,,0.72,WeatherDisplay:10.37,2013-03-26 08:45:00,
2013-03-26 05:00:00,35.8,32.6,29.72,WNW,299,7.0,7.0,88,0.00,OVC,,0.72,WeatherDisplay:10.37,2013-03-26 09:00:00,
2013-03-26 05:15:00,36.0,33.0,29.72,NW,310,7.0,8.0,89,0.00,OVC,,0.72,WeatherDisplay:10.37,2013-03-26 09:15:00,
2013-03-26 05:30:00,36.0,32.8,29.72,NW,304,7.0,9.0,88,0.00,OVC,,0.72,WeatherDisplay:10.37,2013-03-26 09:30:00,
2013-03-26 05:45:00,35.8,32.6,29.72,NW,309,7.0,9.0,88,0.00,OVC,,0.72,WeatherDisplay:10.37,2013-03-26 09:45:00,
2013-03-26 06:00:00,35.8,32.6,29.72,NW,313,7.0,8.0,88,0.00,OVC,,0.72,WeatherDisplay:10.37,2013-03-26 10:00:00,
2013-03-26 06:15:00,35.2,32.3,29.75,WNW,291,7.0,8.0,89,0.00,OVC,,0.72,WeatherDisplay:10.37,2013-03-26 10:15:00,
2013-03-26 06:30:00,35.8,33.1,29.75,WNW,294,6.0,8.0,90,0.00,OVC,,0.72,WeatherDisplay:10.37,2013-03-26 10:30:00,
2013-03-26 06:45:00,35.6,33.0,29.75,WNW,293,6.0,7.0,90,0.00,OVC,,0.72,WeatherDisplay:10.37,2013-03-26 10:45:00,
2013-03-26 07:00:00,35.6,33.0,29.75,WNW,285,6.0,8.0,90,0.00,OVC,,0.00,WeatherDisplay:10.37,2013-03-26 11:00:00,
2013-03-26 07:15:00,36.0,33.3,29.75,WNW,283,6.0,7.0,90,0.00,CLR,,0.00,WeatherDisplay:10.37,2013-03-26 11:15:00,
2013-03-26 07:30:00,36.1,33.2,29.78,West,273,6.0,10.0,89,0.00,BKN,,0.00,WeatherDisplay:10.37,2013-03-26 11:30:00,
2013-03-26 07:45:00,36.1,32.9,29.78,WNW,285,6.0,7.0,88,0.00,OVC,,0.00,WeatherDisplay:10.37,2013-03-26 11:45:00,
2013-03-26 08:00:00,36.7,33.2,29.78,West,281,7.0,8.0,87,0.00,OVC,,0.00,WeatherDisplay:10.37,2013-03-26 12:00:00,
2013-03-26 08:15:00,37.8,33.1,29.78,WNW,285,7.0,7.0,83,0.00,OVC,,0.00,WeatherDisplay:10.37,2013-03-26 12:15:00,
2013-03-26 08:30:00,38.1,31.9,29.78,WNW,298,8.0,12.0,78,0.00,OVC,,0.00,WeatherDisplay:10.37,2013-03-26 12:30:00,
2013-03-26 08:45:00,38.8,31.6,29.78,WNW,301,9.0,11.0,75,0.00,OVC,,0.00,WeatherDisplay:10.37,2013-03-26 12:45:00,
2013-03-26 09:00:00,38.3,30.7,29.78,NW,311,9.0,11.0,74,0.00,BKN,,0.00,WeatherDisplay:10.37,2013-03-26 13:00:00,
2013-03-26 09:15:00,39.0,31.1,29.81,WNW,303,8.0,10.0,73,0.00,BKN,,0.00,WeatherDisplay:10.37,2013-03-26 13:15:00,
2013-03-26 09:30:00,39.2,30.6,29.81,NW,318,9.0,12.0,71,0.00,BKN,,0.00,WeatherDisplay:10.37,2013-03-26 13:30:00,
2013-03-26 09:45:00,39.7,31.1,29.81,NW,320,9.0,12.0,71,0.00,BKN,,0.00,WeatherDisplay:10.37,2013-03-26 13:45:00,
2013-03-26 10:00:00,39.7,30.4,29.81,NW,309,9.0,11.0,69,0.00,BKN,,0.00,WeatherDisplay:10.37,2013-03-26 14:00:00,
2013-03-26 10:15:00,40.5,30.7,29.81,NW,307,10.0,13.0,68,0.00,FEW,,0.00,WeatherDisplay:10.37,2013-03-26 14:15:00,
2013-03-26 10:30:00,41.0,30.5,29.81,WNW,300,12.0,13.0,66,0.00,CLR,,0.00,WeatherDisplay:10.37,2013-03-26 14:30:00,
2013-03-26 10:45:00,41.5,31.0,29.81,WNW,299,12.0,13.0,66,0.00,FEW,,0.00,WeatherDisplay:10.37,2013-03-26 14:45:00,
2013-03-26 11:00:00,41.9,31.0,29.81,NW,318,10.0,12.0,65,0.00,FEW,,0.00,WeatherDisplay:10.37,2013-03-26 15:00:00,
2013-03-26 11:15:00,42.4,31.1,29.81,WNW,301,10.0,12.0,64,0.00,CLR,,0.00,WeatherDisplay:10.37,2013-03-26 15:15:00,
2013-03-26 11:30:00,43.7,32.3,29.81,WNW,290,10.0,12.0,64,0.00,CLR,,0.00,WeatherDisplay:10.37,2013-03-26 15:30:00,
2013-03-26 11:45:00,43.5,31.8,29.81,NW,321,10.0,14.0,63,0.00,CLR,,0.00,WeatherDisplay:10.37,2013-03-26 15:45:00,
2013-03-26 12:00:00,44.6,31.6,29.81,WNW,288,10.0,15.0,60,0.00,CLR,,0.00,WeatherDisplay:10.37,2013-03-26 16:00:00,
2013-03-26 12:15:00,44.2,31.2,29.81,NW,321,13.0,15.0,60,0.00,CLR,,0.00,WeatherDisplay:10.37,2013-03-26 16:15:00,
2013-03-26 12:30:00,44.2,30.8,29.81,NW,316,12.0,15.0,59,0.00,CLR,,0.00,WeatherDisplay:10.37,2013-03-26 16:30:00,
2013-03-26 12:45:00,45.5,32.0,29.81,WNW,291,10.0,15.0,59,0.00,CLR,,0.00,WeatherDisplay:10.37,2013-03-26 16:45:00,
2013-03-26 13:00:00,45.1,31.2,29.81,West,279,9.0,10.0,58,0.00,CLR,,0.00,WeatherDisplay:10.37,2013-03-26 17:00:00,
2013-03-26 13:15:00,44.8,31.3,29.81,West,279,9.0,12.0,59,0.00,CLR,,0.00,WeatherDisplay:10.37,2013-03-26 17:15:00,
2013-03-26 13:30:00,44.8,31.3,29.81,WNW,288,10.0,12.0,59,0.00,CLR,,0.00,WeatherDisplay:10.37,2013-03-26 17:30:00,
2013-03-26 13:45:00,44.8,30.9,29.81,NW,315,10.0,13.0,58,0.00,CLR,,0.00,WeatherDisplay:10.37,2013-03-26 17:45:00,
2013-03-26 14:00:00,46.0,32.1,29.81,West,263,9.0,12.0,58,0.00,CLR,,0.00,WeatherDisplay:10.37,2013-03-26 18:00:00,
2013-03-26 14:15:00,46.4,30.6,29.81,West,267,8.0,12.0,54,0.00,CLR,,0.00,WeatherDisplay:10.37,2013-03-26 18:15:00,
2013-03-26 14:30:00,46.8,31.0,29.81,West,274,8.0,9.0,54,0.00,CLR,,0.00,WeatherDisplay:10.37,2013-03-26 18:30:00,
2013-03-26 14:45:00,46.8,31.0,29.81,WNW,290,9.0,12.0,54,0.00,CLR,,0.00,WeatherDisplay:10.37,2013-03-26 18:45:00,
2013-03-26 15:00:00,47.3,30.1,29.81,West,280,8.0,12.0,51,0.00,CLR,,0.00,WeatherDisplay:10.37,2013-03-26 19:00:00,
2013-03-26 15:15:00,48.0,30.7,29.81,West,280,9.0,12.0,51,0.00,CLR,,0.00,WeatherDisplay:10.37,2013-03-26 19:15:00,
2013-03-26 15:30:00,48.6,30.2,29.81,West,276,7.0,13.0,49,0.00,CLR,,0.00,WeatherDisplay:10.37,2013-03-26 19:30:00,
2013-03-26 15:45:00,48.0,28.2,29.81,WNW,290,9.0,10.0,46,0.00,CLR,,0.00,WeatherDisplay:10.37,2013-03-26 19:45:00,
2013-03-26 16:00:00,50.5,30.0,29.81,WNW,283,9.0,12.0,45,0.00,FEW,,0.00,WeatherDisplay:10.37,2013-03-26 20:00:00,
2013-03-26 16:15:00,52.2,27.9,29.81,West,275,8.0,8.0,39,0.00,FEW,,0.00,WeatherDisplay:10.37,2013-03-26 20:15:00,
2013-03-26 16:30:00,51.3,27.1,29.81,West,281,8.0,10.0,39,0.00,FEW,,0.00,WeatherDisplay:10.37,2013-03-26 20:30:00,
2013-03-26 16:45:00,51.4,27.3,29.81,WSW,254,6.0,9.0,39,0.00,SCT,,0.00,WeatherDisplay:10.37,2013-03-26 20:45:00,
2013-03-26 17:00:00,50.9,27.4,29.81,West,264,6.0,9.0,40,0.00,SCT,,0.00,WeatherDisplay:10.37,2013-03-26 21:00:00,
2013-03-26 17:15:00,50.0,26.6,29.81,WNW,296,6.0,8.0,40,0.00,FEW,,0.00,WeatherDisplay:10.37,2013-03-26 21:15:00,
2013-03-26 17:30:00,48.7,28.3,29.84,West,274,6.0,8.0,45,0.00,BKN,,0.00,WeatherDisplay:10.37,2013-03-26 21:30:00,
2013-03-26 17:45:00,46.9,27.7,29.84,West,279,5.0,7.0,47,0.00,BKN,,0.00,WeatherDisplay:10.37,2013-03-26 21:45:00,
2013-03-26 18:00:00,47.8,30.1,29.84,West,266,5.0,5.0,50,0.00,BKN,,0.00,WeatherDisplay:10.37,2013-03-26 22:00:00,
2013-03-26 18:15:00,48.0,29.7,29.84,West,275,2.0,5.0,49,0.00,FEW,,0.00,WeatherDisplay:10.37,2013-03-26 22:15:00,
2013-03-26 18:30:00,47.3,28.6,29.84,WNW,282,5.0,7.0,48,0.00,FEW,,0.00,WeatherDisplay:10.37,2013-03-26 22:30:00,
2013-03-26 18:45:00,46.9,29.2,29.84,West,276,2.0,5.0,50,0.00,SCT,,0.00,WeatherDisplay:10.37,2013-03-26 22:45:00,
2013-03-26 19:00:00,45.9,27.8,29.84,West,278,2.0,4.0,49,0.00,BKN,,0.00,WeatherDisplay:10.37,2013-03-26 23:00:00,
2013-03-26 19:15:00,43.5,28.0,29.84,WSW,243,1.0,1.0,54,0.00,BKN,,0.00,WeatherDisplay:10.37,2013-03-26 23:15:00,
2013-03-26 19:30:00,41.7,27.2,29.87,SW,230,0.0,1.0,56,0.00,BKN,,0.00,WeatherDisplay:10.37,2013-03-26 23:30:00,
2013-03-26 19:45:00,40.3,27.5,29.87,SW,234,0.0,0.0,60,0.00,FEW,,0.00,WeatherDisplay:10.37,2013-03-26 23:45:00,
2013-03-26 20:00:00,39.6,27.6,29.87,WSW,248,0.0,0.0,62,0.00,CLR,,0.00,WeatherDisplay:10.37,2013-03-27 00:00:00,
2013-03-26 20:15:00,39.4,28.2,29.87,West,260,0.0,0.0,64,0.00,CLR,,0.00,WeatherDisplay:10.37,2013-03-27 00:15:00,
2013-03-26 20:30:00,39.7,28.9,29.87,WSW,239,1.0,6.0,65,0.00,CLR,,0.00,WeatherDisplay:10.37,2013-03-27 00:30:00,
2013-03-26 20:45:00,39.9,28.3,29.90,WSW,244,1.0,1.0,63,0.00,CLR,,0.00,WeatherDisplay:10.37,2013-03-27 00:45:00,
2013-03-26 21:00:00,39.6,27.6,29.90,SW,235,0.0,1.0,62,0.00,CLR,,0.00,WeatherDisplay:10.37,2013-03-27 01:00:00,
2013-03-26 21:15:00,39.9,27.5,29.90,WSW,250,1.0,5.0,61,0.00,CLR,,0.00,WeatherDisplay:10.37,2013-03-27 01:15:00,
2013-03-26 21:30:00,40.5,27.2,29.90,West,260,3.0,5.0,59,0.00,CLR,,0.00,WeatherDisplay:10.37,2013-03-27 01:30:00,
2013-03-26 21:45:00,40.5,27.2,29.90,WSW,249,2.0,5.0,59,0.00,FEW,,0.00,WeatherDisplay:10.37,2013-03-27 01:45:00,
2013-03-26 22:00:00,41.4,27.3,29.90,West,267,5.0,10.0,57,0.00,BKN,,0.00,WeatherDisplay:10.37,2013-03-27 02:00:00,
2013-03-26 22:15:00,41.5,27.4,29.90,West,267,3.0,7.0,57,0.00,SCT,,0.00,WeatherDisplay:10.37,2013-03-27 02:15:00,
2013-03-26 22:30:00,41.7,27.6,29.90,West,270,5.0,10.0,57,0.00,SCT,,0.00,WeatherDisplay:10.37,2013-03-27 02:30:00,
2013-03-26 22:45:00,41.9,27.3,29.93,West,277,5.0,10.0,56,0.00,BKN,,0.00,WeatherDisplay:10.37,2013-03-27 02:45:00,
2013-03-26 23:00:00,41.7,27.6,29.93,West,264,2.0,6.0,57,0.00,BKN,,0.00,WeatherDisplay:10.37,2013-03-27 03:00:00,
2013-03-26 23:15:00,41.2,27.5,29.93,WNW,285,3.0,6.0,58,0.00,BKN,,0.00,WeatherDisplay:10.37,2013-03-27 03:15:00,
2013-03-26 23:30:00,41.0,27.8,29.93,WNW,295,7.0,9.0,59,0.00,BKN,,0.00,WeatherDisplay:10.37,2013-03-27 03:30:00,
2013-03-26 23:45:00,40.5,28.5,29.93,WNW,283,6.0,7.0,62,0.00,OVC,,0.00,WeatherDisplay:10.37,2013-03-27 03:45:00,